Location: Ferintosh
(52.7647°N, 112.9692°W)
Time: 00:33:14
(UTC+00:00)

Vanguard 1 Rocket - Pass Details

Date: 21 May 2024
Orbit: 649 x 4221 km, 34.3° (Epoch: 13 June)

Event Time Altitude Azimuth Distance (km) Brightness Sun altitude
Rises 17:24:12 0° 231° (SW) 7,881 12.1 49.7°
Reaches altitude 10° 17:31:09 10° 222° (SW) 6,352 11.8 50.5°
Maximum altitude 17:45:12 29° 173° (S) 3,616 11.5 52.0°
Drops below altitude 10° 17:53:50 10° 118° (ESE) 3,845 11.3 52.8°
Sets 17:56:49 0° 107° (ESE) 4,439 11.4 53.1°
